Flag for Italy Weather past 2 weeks in Avellino, Italy

Now
45 °F

Clear.


Feels Like: 41 °F
Forecast: 45 / 77 °F
Wind: 7 mph from Northwest

Location: Trevico

Current Time: May 29, 2015 at 6:55:46 AM

Latest Report: May 29, 2015 at 5:55 AM


Visibility: 10 mi

Pressure: 30.01 "Hg

Humidity: 71%

Dew point: 36 °F

Location of AvellinoLocation

Historic Weather in Avellino — Graph

°F

Avellino temperature yesterday

Maximum temperature yesterday: 52 °F (at 4:55 PM)
Minimum temperature yesterday: 45 °F (at 10:55 PM)
Average temperature yesterday: 48 °F

Past Weeks' High & Low Weather Summary

 TemperatureHumidityPressure
High72 °F (May 15, 11:55 AM)100% (May 16, 12:55 AM)30.09 "Hg (May 16, 12:55 AM)
Low45 °F (May 22, 7:55 PM)22% (May 14, 11:55 PM)29.83 "Hg (May 22, 1:55 PM)
Average55 °F72%29.96 "Hg
* Reported May 14 4:55 AM — May 29 4:55 AM, Avellino, Weather by CustomWeather, © 2015

Note: Actual official high and low records may vary slightly from our data, if they occured in-between our weather recording intervals... More about our weather records

Advertising

Avellino weather history for previous 24 hours

 ConditionsComfort  
Time TempWeatherWind HumidityBarometerVisibility
4:55 AM
Fri, May 29
45 °FClear.9 mph71%30.01 "Hg10 mi
3:55 AM45 °FClear.9 mph71%30.04 "Hg10 mi
2:55 AM45 °FClear.9 mph71%30.04 "Hg10 mi
1:55 AM45 °FClear.10 mph66%30.04 "Hg10 mi
12:55 AM45 °FClear.13 mph61%30.04 "Hg10 mi
11:55 PM
Thu, May 28
45 °FClear.10 mph71%30.07 "Hg10 mi
10:55 PM45 °FClear.9 mph71%30.07 "Hg10 mi
9:55 PM46 °FClear.13 mph66%30.04 "Hg10 mi
8:55 PM48 °FSunny.14 mph66%30.04 "Hg10 mi
7:55 PM50 °FSunny.12 mph58%30.04 "Hg10 mi
6:55 PM50 °FPassing clouds.9 mph58%30.04 "HgN/A
5:55 PM52 °FPartly sunny.9 mph47%30.04 "HgN/A
4:55 PM52 °FPartly sunny.9 mph44%30.04 "HgN/A
3:55 PM50 °FScattered clouds.13 mph54%30.04 "HgN/A
2:55 PM48 °FScattered clouds.7 mph66%30.07 "HgN/A
1:55 PM46 °FScattered clouds.7 mph76%30.04 "HgN/A
Weather by CustomWeather, © 2015

See weather overviewHow to use our weather pages